Total_Precipitation_Accumulation
2.23 2.50 3.30 4.14 4.69 3.57 2.58 2.09 1.75 1.54 1.27 0.96 0.75 0.76 1.07 1.52 1.86 1.87 1.74 1.56 0.99 0.87 0.94 1.30 1.54 1.46 1.33 1.24 1.20 1.20 1.16 1.15 1.15 1.14 1.14 1.03 0.90 0.79 0.85 0.84 0.79 0.80 0.79 0.78 0.76 0.79 0.80 0.78 0.83
1.94 2.68 3.86 4.72 3.97 2.78 2.37 1.92 1.68 1.34 1.02 0.77 0.66 0.58 0.69 0.57 0.56 1.01 1.89 1.82 1.00 0.77 0.87 1.21 1.60 1.52 1.43 1.37 1.37 1.33 1.20 1.11 1.09 1.03 0.99 0.96 0.92 0.84 0.86 0.92 0.82 0.82 0.78 0.76 0.72 0.72 0.78 0.80 0.88
2.23 3.11 4.30 4.36 3.05 2.36 2.31 1.77 1.32 0.93 0.68 0.71 0.71 0.57 0.66 0.81 0.92 1.40 1.78 1.30 0.91 0.78 0.86 1.33 1.73 1.58 1.47 1.45 1.52 1.43 1.27 1.14 1.03 0.96 0.94 0.93 0.97 0.96 1.00 0.93 0.86 0.85 0.83 0.79 0.85 0.85 0.90 0.92 1.00
2.49 3.56 3.92 3.31 2.52 1.94 1.68 1.41 1.07 0.92 0.64 0.42 0.53 0.68 0.61 0.87 1.05 1.27 1.22 0.89 0.69 0.68 0.74 1.17 1.68 1.55 1.40 1.36 1.47 1.39 1.23 1.21 1.11 1.05 1.02 1.03 1.12 1.23 1.12 1.03 0.99 0.91 0.90 0.85 0.90 0.94 1.00 1.05 1.07
2.75 3.54 3.52 3.13 2.35 2.00 1.50 1.18 1.00 0.96 0.76 0.50 0.48 0.75 0.79 1.12 1.15 1.15 1.06 0.89 0.70 0.68 0.71 0.98 1.46 1.45 1.30 1.25 1.33 1.30 1.24 1.25 1.13 1.07 1.09 1.10 1.15 1.31 1.38 1.26 1.14 1.08 1.05 1.00 0.97 0.96 0.96 1.01 1.11
3.16 3.25 3.30 3.09 2.53 2.21 1.72 1.27 0.91 0.82 0.69 0.55 0.52 0.77 1.03 1.42 1.33 1.26 1.09 1.03 0.91 0.78 0.69 0.82 1.25 1.31 1.21 1.23 1.26 1.25 1.20 1.12 0.99 1.00 1.06 1.08 1.10 1.23 1.38 1.35 1.26 1.21 1.16 1.15 1.13 1.11 1.05 1.04 1.06
2.95 2.90 2.62 2.22 2.35 2.49 1.79 1.14 1.05 0.97 0.88 0.77 0.56 0.81 1.12 1.49 1.33 1.08 1.06 1.17 1.27 1.13 0.96 0.90 0.97 1.02 1.11 1.20 1.23 1.33 1.36 1.15 0.98 0.93 0.94 0.95 0.98 1.05 1.16 1.22 1.21 1.18 1.19 1.19 1.17 1.16 1.13 1.14 1.12
2.40 2.45 2.20 2.12 2.36 2.52 1.54 1.00 0.84 0.79 0.80 0.54 0.47 0.72 0.92 1.13 1.20 1.12 1.09 1.20 1.21 1.17 1.11 1.04 1.05 1.00 0.99 1.07 1.25 1.48 1.58 1.38 1.10 0.97 0.91 0.93 0.93 0.94 1.07 1.10 1.19 1.23 1.25 1.30 1.31 1.27 1.18 1.25 1.25
2.06 2.37 2.40 2.33 2.26 1.99 1.21 0.92 0.73 0.51 0.53 0.47 0.38 0.55 0.69 0.73 0.92 1.10 1.15 1.19 1.15 1.10 1.10 1.03 1.04 1.06 1.16 1.18 1.25 1.50 1.63 1.56 1.19 0.98 0.96 0.88 0.75 0.88 0.96 0.94 1.22 1.34 1.43 1.44 1.46 1.38 1.26 1.24 1.24
2.10 2.29 2.15 1.75 1.55 1.27 0.98 0.85 0.68 0.70 0.78 0.66 0.49 0.58 0.71 0.76 0.84 0.98 1.04 0.97 0.95 0.93 0.94 0.93 0.92 0.90 0.93 0.98 1.30 1.51 1.39 1.45 1.16 1.10 1.03 0.95 0.98 1.03 0.89 0.88 1.16 1.34 1.45 1.43 1.40 1.39 1.29 1.13 0.96
1.77 1.87 1.54 1.34 1.14 0.92 0.86 0.81 0.62 0.73 0.90 0.68 0.50 0.57 0.71 0.82 0.92 0.91 0.91 0.86 0.81 0.82 0.72 0.67 0.70 0.69 0.71 0.81 0.97 1.24 1.47 1.50 1.44 1.38 1.28 1.23 1.14 0.97 0.87 0.89 0.96 1.08 1.17 1.11 1.19 1.21 1.11 1.02 0.96
1.54 1.47 1.28 1.15 0.86 0.89 0.89 0.75 0.67 0.65 0.68 0.49 0.44 0.50 0.64 0.82 0.94 0.87 0.87 0.88 0.84 0.88 0.86 0.68 0.59 0.60 0.58 0.62 0.76 0.98 1.18 1.30 1.30 1.23 1.13 1.32 1.26 1.04 0.95 1.03 1.07 1.08 1.15 1.31 1.36 1.30 1.20 1.09 0.98
1.43 1.48 1.20 0.98 0.85 0.90 0.84 0.76 0.66 0.66 0.55 0.44 0.44 0.56 0.74 0.87 0.93 0.94 0.89 0.91 0.90 0.90 0.94 0.81 0.62 0.53 0.55 0.56 0.61 0.68 0.91 1.04 1.04 1.18 1.13 1.17 1.17 1.05 0.98 0.99 1.14 1.13 1.17 1.37 1.49 1.32 1.25 1.27 1.21
1.25 1.21 1.15 0.99 0.91 0.93 0.93 0.76 0.65 0.77 0.67 0.56 0.60 0.71 0.87 0.92 0.90 0.87 0.83 0.80 0.79 0.78 0.81 0.77 0.67 0.62 0.58 0.54 0.52 0.55 0.60 0.76 0.78 0.80 0.79 0.98 1.11 1.09 1.12 1.02 1.10 1.25 1.30 1.35 1.40 1.34 1.26 1.26 1.28
1.03 1.12 1.25 1.15 1.10 1.07 0.94 0.99 0.78 0.79 0.79 0.67 0.65 0.70 0.90 0.86 0.83 0.79 0.73 0.67 0.62 0.64 0.66 0.70 0.71 0.72 0.67 0.65 0.64 0.60 0.61 0.64 0.71 0.79 0.80 0.90 1.02 1.09 1.11 1.01 1.05 1.22 1.40 1.38 1.35 1.30 1.32 1.20 1.15
1.18 1.46 1.71 1.40 1.20 1.18 1.08 1.20 0.87 0.87 0.82 0.72 0.67 0.64 0.73 0.64 0.63 0.64 0.61 0.56 0.52 0.50 0.49 0.57 0.60 0.65 0.68 0.70 0.73 0.68 0.71 0.72 0.69 0.76 0.75 0.77 0.92 1.08 1.17 1.11 1.07 1.23 1.43 1.58 1.63 1.51 1.45 1.34 1.28
1.50 1.60 1.53 1.43 1.15 1.16 1.09 1.11 0.94 0.82 0.77 0.67 0.64 0.63 0.59 0.53 0.51 0.53 0.51 0.46 0.40 0.38 0.36 0.40 0.46 0.52 0.59 0.66 0.73 0.73 0.76 0.89 0.96 0.86 0.73 0.78 0.90 1.02 1.22 1.32 1.27 1.30 1.47 1.52 1.53 1.57 1.47 1.46 1.42
1.21 1.22 1.22 1.29 1.08 1.00 0.97 0.90 0.92 0.77 0.62 0.56 0.55 0.55 0.51 0.48 0.41 0.41 0.42 0.40 0.36 0.34 0.30 0.33 0.41 0.43 0.45 0.55 0.70 0.80 0.77 0.86 1.08 1.11 1.10 1.14 1.19 1.23 1.38 1.50 1.49 1.49 1.55 1.53 1.64 1.84 1.66 1.49 1.50
0.89 0.90 0.96 0.88 0.75 0.86 0.86 0.80 0.85 0.78 0.64 0.50 0.47 0.50 0.46 0.43 0.42 0.36 0.32 0.35 0.33 0.29 0.26 0.29 0.36 0.40 0.41 0.48 0.59 0.69 0.79 0.97 1.18 1.23 1.30 1.45 1.45 1.46 1.58 1.70 1.74 1.67 1.59 1.65 1.82 2.18 2.07 1.71 1.55
0.82 0.82 0.86 0.76 0.65 0.69 0.78 0.82 0.81 0.73 0.65 0.54 0.46 0.38 0.37 0.37 0.34 0.28 0.27 0.28 0.26 0.24 0.22 0.25 0.34 0.44 0.49 0.53 0.66 0.81 1.03 1.15 1.31 1.47 1.46 1.49 1.53 1.57 1.63 1.84 1.96 1.90 1.88 1.97 2.01 2.26 2.41 2.13 1.94
0.80 0.74 0.69 0.72 0.68 0.66 0.71 0.92 0.87 0.79 0.65 0.53 0.44 0.34 0.28 0.32 0.30 0.22 0.22 0.26 0.23 0.22 0.24 0.27 0.40 0.60 0.79 0.87 1.09 1.36 1.62 1.69 1.63 1.64 1.70 1.68 1.70 1.76 1.72 1.84 2.03 2.02 1.99 2.03 2.22 2.53 2.83 2.73 2.47
0.81 0.56 0.50 0.60 0.72 0.81 0.67 0.95 0.83 0.77 0.69 0.53 0.44 0.38 0.31 0.34 0.37 0.28 0.26 0.28 0.25 0.26 0.34 0.50 0.72 1.01 1.25 1.38 1.56 1.77 1.88 1.92 1.85 1.87 1.86 1.84 1.75 1.67 1.67 1.80 2.00 2.15 2.24 2.31 2.38 2.38 2.73 2.97 2.81
0.64 0.51 0.50 0.59 0.69 0.71 0.61 0.73 0.69 0.61 0.67 0.58 0.53 0.48 0.42 0.41 0.40 0.40 0.39 0.43 0.44 0.53 0.71 1.00 1.25 1.47 1.61 1.66 1.74 1.92 2.07 2.23 2.25 2.15 2.00 1.88 1.84 1.77 1.68 1.73 1.80 1.85 1.94 2.09 2.21 2.28 2.51 2.69 2.83
0.52 0.58 0.62 0.63 0.71 0.80 0.57 0.57 0.69 0.58 0.56 0.59 0.60 0.52 0.47 0.44 0.44 0.52 0.65 0.76 0.86 0.95 1.12 1.33 1.46 1.60 1.60 1.59 1.63 1.75 1.93 2.10 2.14 2.16 2.13 1.99 1.86 1.75 1.65 1.59 1.68 1.70 1.71 1.86 1.98 2.08 2.32 2.50 2.61
0.57 0.73 0.92 0.93 0.90 0.78 0.48 0.57 0.60 0.43 0.41 0.48 0.53 0.52 0.48 0.45 0.52 0.71 0.87 1.00 1.12 1.22 1.31 1.33 1.31 1.36 1.41 1.40 1.42 1.48 1.55 1.59 1.65 1.76 1.69 1.56 1.45 1.39 1.37 1.29 1.34 1.47 1.52 1.71 1.79 1.73 1.79 1.98 2.19
0.52 0.55 0.79 0.90 0.80 0.69 0.53 0.70 0.63 0.45 0.42 0.39 0.43 0.49 0.57 0.68 0.78 0.90 1.00 1.10 1.13 1.26 1.30 1.24 1.21 1.20 1.14 1.10 1.13 1.13 1.17 1.22 1.25 1.26 1.22 1.14 1.10 1.07 1.04 1.03 1.04 1.11 1.18 1.40 1.62 1.60 1.61 1.68 1.78
0.44 0.43 0.46 0.62 0.61 0.64 0.59 0.69 0.63 0.43 0.41 0.40 0.40 0.49 0.63 0.81 1.04 1.21 1.20 1.10 1.03 1.08 1.14 1.11 1.06 1.00 0.93 0.87 0.91 0.92 0.98 1.00 0.97 0.95 0.90 0.89 0.83 0.82 0.80 0.83 0.93 0.99 0.97 1.06 1.21 1.39 1.46 1.52 1.60
0.34 0.38 0.47 0.69 0.81 0.83 0.70 0.77 0.72 0.54 0.48 0.45 0.48 0.60 0.77 0.92 1.11 1.38 1.51 1.38 1.11 0.94 0.97 0.93 0.89 0.91 0.89 0.84 0.87 0.86 0.78 0.71 0.70 0.73 0.67 0.66 0.71 0.74 0.74 0.71 0.73 0.80 0.82 0.91 1.02 1.07 1.18 1.25 1.40
0.35 0.40 0.50 0.65 0.67 0.88 1.12 1.11 0.83 0.71 0.63 0.62 0.67 0.74 0.80 1.02 1.30 1.44 1.48 1.34 1.16 0.89 0.83 0.81 0.78 0.81 0.85 0.79 0.82 0.83 0.72 0.58 0.54 0.52 0.49 0.50 0.53 0.58 0.59 0.61 0.68 0.69 0.72 0.73 0.74 0.79 0.84 0.91 1.01
0.32 0.40 0.53 0.81 0.82 0.78 0.98 1.03 0.66 0.69 0.79 0.73 0.80 0.89 0.91 0.95 0.97 0.98 1.08 1.09 1.02 0.88 0.81 0.86 0.90 0.90 0.82 0.75 0.74 0.74 0.65 0.55 0.56 0.51 0.43 0.46 0.50 0.52 0.53 0.58 0.61 0.61 0.67 0.70 0.69 0.68 0.70 0.80 0.88